Lexington, NE

5:27 PM CST on February 24, 2017 (GMT -0600)
Kelly

Weather History for KLXN - January, 2014

Change the Weather History Date:

Friday, January 31, 2014

  Actual Average Record
Temperature  
Mean Temperature 19 °F -  
Max Temperature 21 °F 37 °F 62 °F (1997)
Min Temperature 17 °F 16 °F 1 °F (2008)
Degree Days  
Heating Degree Days 46    
Moisture  
Dew Point 16 °F    
Average Humidity 86    
Maximum Humidity 92    
Minimum Humidity 77    
Precipitation  
Precipitation 0.07 in - - ()
Sea Level Pressure  
Sea Level Pressure 29.94 in    
Wind  
Wind Speed 6 mph (ESE)    
Max Wind Speed 10 mph    
Max Gust Speed -    
Visibility 5 miles    
Events Snow    
Averages and records for this station are not official NWS values.
T = Trace of Precipitation, MM = Missing Value Source: NWS Daily Summary

Daily Weather History Graph

Daily Weather History Graph

Search for Another Location

Airport or City:

Trip Planner

Search our weather history database for the weather conditions in past years. The results will help you decide how hot, cold, wet, or windy it might be!

Date:

Astronomy

Jan. 31, 2014 Rise Set
Actual Time 7:50 AM CST 5:55 PM CST
Civil Twilight 7:21 AM CST 6:24 PM CST
Nautical Twilight 6:48 AM CST 6:57 PM CST
Astronomical Twilight 6:16 AM CST 7:29 PM CST
Moon 8:00 AM CST (1/31) 7:22 PM CST (1/31)
Length of Visible Light 11h 03m
Length of Day
10h 05m
New Moon, 1% of the Moon is Illuminated
Jan 31
New Moon
Feb 6
First Quarter
Feb 14
Full
Feb 22
Last Quarter
Mar 1
New

Hourly Weather History & Observations

Time (CST) Temp. Windchill Dew Point Humidity Pressure Visibility Wind Dir Wind Speed Gust Speed Precip Events Conditions
12:15 AM 21.9 °F 14.5 °F 19.4 °F 90% 29.96 in 1.8 mi ENE 5.8 mph - N/A Snow Light Snow
12:35 AM 21.6 °F 10.6 °F 19.0 °F 90% 29.95 in 1.2 mi ENE 10.4 mph - N/A Snow Light Snow
12:55 AM 21.0 °F 9.9 °F 18.5 °F 90% 29.95 in 1.2 mi ENE 10.4 mph - N/A Snow Light Snow
1:15 AM 21.0 °F 10.6 °F 18.5 °F 90% 29.94 in 1.8 mi ENE 9.2 mph - N/A Snow Light Snow
1:35 AM 21.0 °F 13.4 °F 18.7 °F 91% 29.95 in 1.5 mi ENE 5.8 mph - N/A Snow Light Snow
1:55 AM 20.8 °F 11.2 °F 18.3 °F 90% 29.96 in 1.8 mi ENE 8.1 mph - 0.01 in Snow Light Snow
2:15 AM 20.8 °F 10.4 °F 18.3 °F 90% 29.94 in 2.5 mi NE 9.2 mph - N/A Snow Light Snow
2:35 AM 20.7 °F 13.0 °F 18.3 °F 91% 29.96 in 2.0 mi NE 5.8 mph - N/A Snow Light Snow
2:55 AM 20.8 °F 14.4 °F 18.5 °F 91% 29.97 in 2.5 mi NE 4.6 mph - N/A Snow Light Snow
3:15 AM 20.7 °F 13.0 °F 18.3 °F 91% 29.96 in 2.0 mi NE 5.8 mph - N/A Snow Light Snow
3:35 AM 20.3 °F 11.5 °F 18.3 °F 92% 29.95 in 2.0 mi ENE 6.9 mph - N/A Snow Light Snow
3:55 AM 20.3 °F 10.6 °F 17.6 °F 89% 29.95 in 2.0 mi NE 8.1 mph - N/A Snow Light Snow
4:15 AM 20.1 °F 10.3 °F 17.6 °F 90% 29.96 in 1.8 mi ENE 8.1 mph - N/A Snow Light Snow
4:35 AM 19.8 °F 9.9 °F 17.4 °F 91% 29.96 in 2.0 mi East 8.1 mph - N/A Snow Light Snow
4:55 AM 19.4 °F 8.6 °F 16.7 °F 89% 29.97 in 2.5 mi ENE 9.2 mph - 0.01 in Snow Light Snow
5:15 AM 19.4 °F 8.6 °F 16.7 °F 89% 29.96 in 1.8 mi East 9.2 mph - N/A Snow Light Snow
5:35 AM 19.0 °F 8.2 °F 16.3 °F 89% 29.97 in 2.0 mi ENE 9.2 mph - 0.01 in Snow Light Snow
5:55 AM 19.0 °F 10.0 °F 16.2 °F 89% 29.99 in 3.0 mi East 6.9 mph - 0.01 in Snow Light Snow
6:15 AM 18.9 °F 10.8 °F 16.2 °F 89% 29.99 in 3.0 mi East 5.8 mph - N/A Snow Light Snow
6:35 AM 18.9 °F 12.1 °F 15.8 °F 88% 29.99 in 3.0 mi ENE 4.6 mph - N/A Snow Light Snow
6:55 AM 18.9 °F 12.1 °F 16.3 °F 90% 30.00 in 1.8 mi East 4.6 mph - N/A Snow Light Snow
7:15 AM 18.7 °F 13.5 °F 16.2 °F 90% 30.01 in 2.0 mi East 3.5 mph - N/A Snow Light Snow
7:35 AM 18.5 °F 9.3 °F 15.8 °F 89% 30.02 in 1.8 mi East 6.9 mph - N/A Snow Light Snow
7:55 AM 18.0 °F 9.8 °F 15.1 °F 88% 30.02 in 1.8 mi East 5.8 mph - N/A Snow Light Snow
8:15 AM 17.6 °F 10.7 °F 14.7 °F 88% 30.02 in 3.0 mi ENE 4.6 mph - N/A Snow Light Snow
8:35 AM 18.0 °F 12.7 °F 15.1 °F 88% 30.03 in 4.0 mi East 3.5 mph - N/A Snow Light Snow
8:55 AM 18.1 °F 10.0 °F 14.9 °F 87% 30.02 in 5.0 mi East 5.8 mph - 0.01 in   Overcast
9:15 AM 18.3 °F 10.2 °F 14.7 °F 86% 30.03 in 5.0 mi East 5.8 mph - N/A Snow Light Snow
9:35 AM 18.5 °F 10.4 °F 14.9 °F 86% 30.03 in 10.0 mi East 5.8 mph - N/A Snow Light Snow
9:55 AM 18.5 °F 10.4 °F 14.9 °F 86% 30.04 in 4.0 mi East 5.8 mph - N/A Snow Light Snow
10:15 AM 18.9 °F 10.8 °F 14.7 °F 84% 30.04 in 3.0 mi ESE 5.8 mph - 0.01 in Snow Light Snow
10:35 AM 19.0 °F 12.3 °F 14.9 °F 84% 30.03 in 1.8 mi SE 4.6 mph - 0.01 in Snow Light Snow
10:55 AM 19.2 °F 12.5 °F 15.3 °F 85% 30.03 in 2.0 mi SE 4.6 mph - 0.01 in Snow Light Snow
11:15 AM 19.4 °F 11.5 °F 15.4 °F 85% 30.03 in 1.5 mi SSE 5.8 mph - 0.01 in Snow Light Snow
11:35 AM 19.4 °F 12.8 °F 15.4 °F 85% 30.02 in 2.0 mi SE 4.6 mph - 0.01 in Snow Light Snow
11:55 AM 19.8 °F 11.9 °F 15.1 °F 82% 30.01 in 1.8 mi SE 5.8 mph - 0.01 in Snow Light Snow
12:15 PM 20.3 °F 13.8 °F 15.3 °F 81% 30.00 in 3.0 mi SE 4.6 mph - N/A Snow Light Snow
12:35 PM 20.3 °F 11.5 °F 15.3 °F 81% 29.97 in 3.0 mi SSE 6.9 mph - N/A Snow Light Snow
12:55 PM 20.7 °F 11.0 °F 14.5 °F 77% 29.95 in 5.0 mi SE 8.1 mph - N/A Snow Light Snow
1:20 PM 20.7 °F 13.0 °F 14.7 °F 78% 29.94 in 7.0 mi ESE 5.8 mph - N/A Snow Light Snow
1:40 PM 20.5 °F 14.0 °F 14.9 °F 79% 29.93 in 10.0 mi ESE 4.6 mph - N/A Snow Light Snow
1:55 PM 20.8 °F 14.4 °F 15.4 °F 80% 29.93 in 10.0 mi SE 4.6 mph - N/A Snow Light Snow
2:15 PM 20.8 °F 13.2 °F 15.6 °F 80% 29.93 in 7.0 mi SE 5.8 mph - N/A Snow Light Snow
2:35 PM 20.7 °F 13.0 °F 14.9 °F 78% 29.93 in 10.0 mi SSE 5.8 mph - N/A   Overcast
3:00 PM 20.8 °F 14.4 °F 15.3 °F 79% 29.91 in 10.0 mi SSE 4.6 mph - N/A Snow Light Snow
3:20 PM 20.8 °F 13.2 °F 15.6 °F 80% 29.90 in 10.0 mi SSE 5.8 mph - N/A Snow Light Snow
3:35 PM 21.0 °F 13.4 °F 15.4 °F 79% 29.90 in 10.0 mi South 5.8 mph - N/A Snow Light Snow
3:55 PM 20.8 °F 16.0 °F 15.6 °F 80% 29.90 in 10.0 mi SSE 3.5 mph - N/A   Overcast
4:15 PM 20.5 °F 14.0 °F 15.8 °F 82% 29.89 in 10.0 mi SE 4.6 mph - N/A Snow Light Snow
4:35 PM 20.3 °F 12.5 °F 15.4 °F 81% 29.88 in 10.0 mi SE 5.8 mph - N/A   Overcast
4:50 PM 20.3 °F 12.5 °F 15.3 °F 81% 29.89 in 10.0 mi SSE 5.8 mph - N/A   Overcast
5:20 PM 19.8 °F 11.9 °F 14.9 °F 81% 29.88 in 10.0 mi SE 5.8 mph - N/A   Overcast
5:35 PM 19.8 °F 9.9 °F 15.1 °F 82% 29.87 in 10.0 mi SSE 8.1 mph - N/A   Overcast
6:00 PM 19.6 °F 11.7 °F 15.4 °F 84% 29.87 in 10.0 mi SSE 5.8 mph - N/A   Overcast
6:15 PM 19.4 °F 12.8 °F 15.3 °F 84% 29.87 in 10.0 mi SE 4.6 mph - N/A   Overcast
6:35 PM 19.4 °F 14.3 °F 14.9 °F 83% 29.88 in 10.0 mi SE 3.5 mph - N/A   Overcast
6:55 PM 19.4 °F 14.3 °F 15.1 °F 83% 29.88 in 7.0 mi SE 3.5 mph - N/A Snow Light Snow
7:15 PM 19.2 °F 11.3 °F 15.1 °F 84% 29.89 in 10.0 mi SSE 5.8 mph - N/A   Overcast
7:35 PM 19.0 °F 11.1 °F 15.4 °F 86% 29.89 in 7.0 mi SSE 5.8 mph - N/A   Overcast
7:55 PM 19.0 °F 11.1 °F 15.4 °F 86% 29.89 in 10.0 mi South 5.8 mph - N/A   Overcast
8:15 PM 18.9 °F 13.7 °F 15.8 °F 88% 29.89 in 1.8 mi SSE 3.5 mph - N/A Snow Light Snow
8:35 PM 18.9 °F 13.7 °F 15.8 °F 88% 29.89 in 3.0 mi SE 3.5 mph - N/A Snow Light Snow
8:55 PM 18.9 °F 12.1 °F 16.2 °F 89% 29.88 in 4.0 mi SSE 4.6 mph - N/A Snow Light Snow
9:15 PM 18.9 °F 13.7 °F 16.0 °F 89% 29.88 in 2.0 mi SSE 3.5 mph - 0.01 in Snow Light Snow
9:35 PM 18.7 °F - 16.0 °F 89% 29.90 in 3.0 mi Calm Calm - 0.01 in Snow Light Snow
9:55 PM 18.9 °F - 16.3 °F 90% 29.90 in 5.0 mi Calm Calm - 0.01 in Snow Light Snow
10:20 PM 18.9 °F - 16.3 °F 90% 29.88 in 10.0 mi Calm Calm - N/A   Overcast
10:35 PM 18.9 °F - 16.2 °F 89% 29.88 in 10.0 mi Calm Calm - N/A   Overcast
10:55 PM 19.0 °F 13.9 °F 16.3 °F 89% 29.88 in 10.0 mi SE 3.5 mph - N/A   Overcast
11:15 PM 19.0 °F 12.3 °F 16.3 °F 89% 29.89 in 10.0 mi SSE 4.6 mph - N/A   Overcast
11:35 PM 19.4 °F 12.8 °F 16.7 °F 89% 29.89 in 10.0 mi SSE 4.6 mph - N/A   Overcast
11:55 PM 19.2 °F 12.5 °F 16.3 °F 89% 29.88 in 10.0 mi SSE 4.6 mph - N/A   Overcast